Flag for U.S.A. Weather past 2 weeks in Chattanooga, Tennessee, U.S.A.

Now
74 °F

Scattered clouds.


Feels Like: 77 °F
Forecast: 50 / 82 °F
Wind: 3 mph from North

Location: Lovell Field

Current Time: May 23, 2015 at 12:55:39 PM

Latest Report: May 23, 2015 at 11:53 AM


Visibility: 10 mi

Pressure: 30.37 "Hg

Humidity: 48%

Dew point: 53 °F

Location of ChattanoogaLocation

Historic Weather in Chattanooga — Graph

°F

Chattanooga temperature yesterday

Maximum temperature yesterday: 75 °F (at 5:53 PM)
Minimum temperature yesterday: 51 °F (at 5:53 AM)
Average temperature yesterday: 62 °F

Past Weeks' High & Low Weather Summary

 TemperatureHumidityPressure
High90 °F (May 11, 2:53 PM)97% (May 17, 4:53 AM)30.38 "Hg (May 17, 4:53 AM)
Low50 °F (May 23, 5:53 AM)24% (May 13, 5:53 PM)29.86 "Hg (May 20, 10:53 PM)
Average72 °F66%30.13 "Hg
* Reported May 8 11:53 AM — May 23 11:53 AM, Chattanooga, Weather by CustomWeather, © 2015

Note: Actual official high and low records may vary slightly from our data, if they occured in-between our weather recording intervals... More about our weather records

Advertising

Chattanooga weather history for previous 24 hours

 ConditionsComfort  
Time TempWeatherWind HumidityBarometerVisibility
11:53 AM
Sat, May 23
74 °FScattered clouds.3 mph48%30.37 "Hg10 mi
10:53 AM70 °FScattered clouds.No wind53%30.38 "Hg10 mi
9:53 AM66 °FScattered clouds.5 mph59%30.38 "Hg10 mi
8:53 AM61 °FScattered clouds.No wind70%30.38 "Hg10 mi
7:53 AM54 °FScattered clouds.No wind83%30.37 "Hg10 mi
6:53 AM50 °FPassing clouds.No wind89%30.34 "Hg10 mi
5:53 AM50 °FClear.No wind89%30.31 "Hg10 mi
4:53 AM51 °FClear.No wind89%30.28 "Hg10 mi
3:53 AM52 °FClear.No wind89%30.26 "Hg10 mi
2:53 AM52 °FClear.No wind89%30.27 "Hg10 mi
1:53 AM55 °FClear.No wind83%30.27 "Hg10 mi
12:53 AM55 °FClear.No wind83%30.27 "Hg10 mi
11:53 PM
Fri, May 22
57 °FPassing clouds.No wind78%30.26 "Hg10 mi
10:53 PM60 °FPassing clouds.No wind67%30.27 "Hg10 mi
9:53 PM61 °FPartly cloudy.3 mph65%30.26 "Hg10 mi
8:53 PM69 °FBroken clouds.5 mph39%30.24 "Hg10 mi
7:53 PM72 °FScattered clouds.9 mph33%30.22 "Hg10 mi
6:53 PM74 °FScattered clouds.9 mph29%30.21 "Hg10 mi
5:53 PM75 °FScattered clouds.7 mph26%30.22 "Hg10 mi
4:53 PM74 °FScattered clouds.12 mph24%30.22 "Hg10 mi
3:53 PM74 °FScattered clouds.13 mph35%30.23 "Hg10 mi
2:53 PM71 °FScattered clouds.13 mph39%30.23 "Hg10 mi
1:53 PM71 °FScattered clouds.14 mph39%30.24 "Hg10 mi
12:53 PM67 °FScattered clouds.8 mph45%30.25 "Hg10 mi
Weather by CustomWeather, © 2015

See weather overviewHow to use our weather pages